Weather Roundup
Issued by NWS

Home | Current Version | Previous Version | Graphics & Text | Print | Product List | Glossary Off
Versions: 1 2 3 4 5 6 7 8 9 10 11 12 13 14 15 16 17 18 19 20 21 22 23 24 25 26 27 28 29 30 31 32 33 34 35 36 37 38 39 40 41 42 43 44 45 46 47 48 49 50

518
NZUS93 KARX 111959
HRRWXR

CURRENT HOURLY OBSERVATIONS ACROSS
MUCH OF THE UPPER MISSISSIPPI VALLEY
NATIONAL WEATHER SERVICE LA CROSSE WI
200 PM CST THU FEB 11 2016


...SOUTHEAST MINNESOTA...


CITY           SKY/WX    TMP DP  RH WIND       PRES   REMARKS
ROCHESTER      SUNNY     10   0  63 S12       30.23F WCI  -5
ROCHESTER/MAYO FAIR      16  -1  46 S7        30.24F WCI   6
WINONA         MOSUNNY   19   0  42 SW5       30.29F WCI  13
AUSTIN         MOSUNNY   12   1  62 S12       30.24F WCI  -2
ALBERT LEA     SUNNY     14   1  57 S7        30.23F WCI   4
DODGE CENTER   MOSUNNY   16   1  53 S7        30.22F WCI   6
PRESTON        SUNNY     13  -3  49 SW8       30.25F WCI   1
OWATONNA       PTSUNNY   16   0  48 SW8       30.23F WCI   5
FARIBAULT      CLOUDY    16   1  53 SE7       30.25F WCI   6
$$

...ELSEWHERE IN MINNESOTA...


CITY           SKY/WX    TMP DP  RH WIND       PRES   REMARKS
MINNEAPOLIS    CLOUDY    16  -4  41 SW7       30.25F WCI   6
INTNL FALLS    PTSUNNY   11  -6  46 W9        30.13F WCI  -2
DULUTH         MOSUNNY   11  -5  48 W10       30.13F WCI  -3
RED WING       NOT AVBL
REDWOOD FALLS  CLOUDY    14   4  64 S12       30.23F WCI   0
MANKATO        MOSUNNY   16   0  48 S9        30.25F WCI   4
WORTHINGTON    CLOUDY    14   7  73 S13       30.19F WCI   0
FAIRMONT       CLOUDY    12   1  62 S10       30.22F WCI  -1
$$

...SOUTHWEST WISCONSIN...


CITY           SKY/WX    TMP DP  RH WIND       PRES   REMARKS
LA CROSSE      SUNNY     17   0  47 SE5       30.29F WCI  10
PRAIRIE DU CHI NOT AVBL
BOSCOBEL       SUNNY     19  -2  39 S6        30.30F WCI  11
LONE ROCK      NOT AVBL
PLATTEVILLE    SUNNY     15   1  53 S3        30.29F
FORT MC COY    SUNNY     17  -2  44 S5        30.28F WCI   9
VIROQUA        FAIR      16  -5  38 W7        30.24F WCI   6
WIS DELLS      SUNNY     15  -3  43 W6        30.27F WCI   7
$$

...ELSEWHERE IN WISCONSIN...


CITY           SKY/WX    TMP DP  RH WIND       PRES   REMARKS
MILWAUKEE      MOSUNNY   18  -1  43 W8        30.28F WCI   8
MADISON        MOSUNNY   17  -2  43 NW7       30.27F WCI   8
GREEN BAY      SUNNY     16   1  51 W9        30.23F WCI   4
EAU CLAIRE     NOT AVBL
BLACK RVR FLS  FAIR      17  -6  35 W6        30.26F WCI   9
MEDFORD        SUNNY     11  -3  54 SW9       30.18F WCI  -2
WAUSAU         SUNNY     14  -3  47 W14       30.18F WCI  -1
WIS RAPIDS     SUNNY     15  -4  42 W10       30.24F WCI   2
MARSHFIELD     SUNNY     13  -2  51 NW7       30.19F WCI   3
RICE LAKE      PTSUNNY   12  -7  42 W5        30.25F WCI   4
$$

...NORTHEAST IOWA...


CITY           SKY/WX    TMP DP  RH WIND       PRES   REMARKS
WATERLOO       CLOUDY    14   2  58 S3        30.29F
DUBUQUE        SUNNY     17   3  54 SW5       30.28F WCI  10
DECORAH        SUNNY     14   0  52 VRB7G13   30.27F WCI   4
MASON CITY     CLOUDY    11   3  70 S10       30.26F WCI  -3
CHARLES CITY   MOSUNNY   12   0  57 S8        30.28F WCI   1
OELWEIN        SUNNY     14   1  57 S5        30.29F WCI   6
$$

...ELSEWHERE IN IOWA...


CITY           SKY/WX    TMP DP  RH WIND       PRES   REMARKS
DES MOINES     CLOUDY    20   1  43 S6        30.27F WCI  12
IOWA CITY      MOSUNNY   21   3  45 S3        30.33F
FORT DODGE     CLOUDY    16   0  48 SW7       30.25F WCI   6
MARSHALLTOWN   CLOUDY    16   2  54 SE6       30.27F WCI   7
CEDAR RAPIDS   SUNNY     20   5  52 W5        30.29F WCI  13
$$

...NORTHERN ILLINOIS...


CITY           SKY/WX    TMP DP  RH WIND       PRES   REMARKS
CHICAGO-OHARE  MOSUNNY   20   3  48 W7        30.28F WCI  11
CHICAGO-MIDWAY MOSUNNY   21   0  39 W5        30.29F WCI  15
MOLINE         SUNNY     23   1  38 SW6       30.32F WCI  16
ROCKFORD       MOSUNNY   20   4  50 CALM      30.32F
PEORIA         SUNNY     25   2  37 VRB3      30.31F
$$

NOTE: "FAIR" INDICATES FEW OR NO CLOUDS BELOW 12,000 FEET WITH NO
SIGNIFICANT WEATHER AND/OR OBSTRUCTIONS TO VISIBILITY. WIND
SPEEDS ARE IN MILES-PER-HOUR.




USA.gov is the U.S. government's official web portal to all federal, state and local government web resources and services.